Flag for Germany Weather past 2 weeks in Erding, Bavaria, Germany

Now
63 °F

Mild.


Feels Like: 63 °F
Forecast: 39 / 45 °F
Wind: 8 mph from Southwest

Location: Erding Airport

Current Time: Oct 21, 2014 at 6:09:21 PM

Latest Report: Oct 21, 2014 at 5:20 PM


Visibility: 3 mi

Pressure: 29.74 "Hg

Humidity: 68%

Dew point: 52 °F

Location of ErdingLocation

Historic Weather in Erding — Graph

°F

Erding temperature yesterday

Maximum temperature yesterday: 72 °F (at 1:20 PM)
Minimum temperature yesterday: 55 °F (at 1:20 AM)
Average temperature yesterday: 62 °F

Past Weeks' High & Low Weather Summary

 TemperatureHumidityPressure
High75 °F (Oct 9, 2:20 PM)100% (Oct 6, 12:20 PM)30.27 "Hg (Oct 6, 12:20 PM)
Low41 °F (Oct 19, 7:20 AM)44% (Oct 9, 2:20 PM)29.77 "Hg (Oct 17, 7:20 AM)
Average57 °F89%29.96 "Hg
* Reported Oct 6 12:20 PM — Oct 21 12:20 PM, Erding, Weather by CustomWeather, © 2014

Note: Actual official high and low records may vary slightly from our data, if they occured in-between our weather recording intervals... More about our weather records

Advertising

Erding weather history for previous 24 hours

 ConditionsComfort  
Time TempWeatherWind HumidityBarometerVisibility
12:20 PM
Oct 21
55 °FCool.5 mph94%29.92 "Hg2 mi
11:20 AM55 °FCool.7 mph94%29.95 "Hg1 mi
10:20 AM55 °FCool.7 mph94%29.95 "Hg3 mi
9:20 AM54 °FCool.3 mph100%29.95 "Hg2 mi
8:20 AM52 °FCool.3 mph100%29.95 "Hg2 mi
7:20 AM52 °FCool.2 mph100%29.95 "Hg2 mi
6:20 AM54 °FCool.3 mph94%29.98 "Hg2 mi
5:20 AM54 °FCool.5 mph100%29.98 "Hg2 mi
4:20 AM54 °FCool.3 mph100%29.98 "Hg2 mi
3:20 AM54 °FCool.3 mph100%30.01 "Hg1 mi
2:20 AM55 °FCool.3 mph100%30.01 "Hg1 mi
1:20 AM57 °FCool.5 mph94%30.01 "Hg2 mi
12:20 AM57 °FCool.2 mph100%30.01 "Hg2 mi
11:20 PM
Oct 20
57 °FCool.5 mph100%30.04 "Hg2 mi
10:20 PM57 °FCool.6 mph100%30.04 "Hg1 mi
9:20 PM59 °FCool.2 mph100%30.04 "Hg2 mi
8:20 PM59 °FCool.6 mph100%30.07 "Hg1 mi
7:20 PM61 °FCool.7 mph94%30.07 "Hg2 mi
6:20 PM64 °FMild.6 mph78%30.04 "Hg2 mi
Weather by CustomWeather, © 2014

See weather overviewHow to use our weather pages